Weather History for KSUU - September, 2013

Change the Weather History Date:

Thursday, September 19, 2013

  Actual Average Record
Temperature  
Mean Temperature 72 °F -  
Max Temperature 92 °F 83 °F 102 °F (2000)
Min Temperature 53 °F 55 °F 50 °F (1996)
Cooling Degree Days 7    
Growing Degree Days 22 (Base 50)    
Moisture  
Dew Point 45 °F    
Average Humidity 45    
Maximum Humidity 81    
Minimum Humidity 17    
Precipitation  
Precipitation 0.00 in - - ()
Sea Level Pressure  
Sea Level Pressure 29.79 in    
Wind  
Wind Speed 9 mph (SW)    
Max Wind Speed 20 mph    
Max Gust Speed -    
Visibility 10 miles    
Events      
Averages and records for this station are not official NWS values.
T = Trace of Precipitation, MM = Missing Value Source: NWS Daily Summary

Daily Weather History Graph

Daily Weather History Graph

Search for Another Location

Airport or City:

Trip Planner

Search our weather history database for the weather conditions in past years. The results will help you decide how hot, cold, wet, or windy it might be!

Date:

Astronomy

Sep. 19, 2013 Rise Set
Actual Time 6:53 AM PDT 7:08 PM PDT
Civil Twilight 6:26 AM PDT 7:35 PM PDT
Nautical Twilight 5:55 AM PDT 8:06 PM PDT
Astronomical Twilight 5:24 AM PDT 8:37 PM PDT
Moon 7:11 PM PDT (9/19) 7:07 AM PDT (9/19)
Length of Visible Light 13h 08m
Length of Day
12h 15m
Full, 100% of the Moon is Illuminated
Sep 19
Full
Sep 26
Last Quarter
Oct 4
New
Oct 11
First Quarter
Oct 18
Full

Hourly Weather History & Observations

Time (PDT) Temp. Dew Point Humidity Pressure Visibility Wind Dir Wind Speed Gust Speed Precip Events Conditions
12:58 AM 60.1 °F 51.6 °F 74% 29.81 in 10.0 mi SW 12.7 mph - N/A   Clear
1:58 AM 59.9 °F 52.3 °F 76% 29.82 in 10.0 mi SSW 12.7 mph - N/A   Clear
2:58 AM 59.0 °F 52.0 °F 78% 29.81 in 10.0 mi SW 12.7 mph - N/A   Clear
3:58 AM 58.6 °F 51.8 °F 78% 29.80 in 10.0 mi SW 12.7 mph - N/A   Clear
4:58 AM 57.2 °F 50.2 °F 77% 29.81 in 10.0 mi SW 10.4 mph - N/A   Clear
5:58 AM 55.8 °F 48.7 °F 77% 29.82 in 10.0 mi SSW 6.9 mph - N/A   Clear
6:58 AM 53.8 °F 48.2 °F 81% 29.81 in 10.0 mi SW 4.6 mph - N/A   Clear
7:58 AM 57.9 °F 52.2 °F 81% 29.83 in 10.0 mi SSW 5.8 mph - N/A   Clear
8:58 AM 66.0 °F 48.7 °F 54% 29.84 in 10.0 mi SSW 4.6 mph - N/A   Clear
9:58 AM 73.4 °F 41.5 °F 32% 29.86 in 10.0 mi Calm Calm - N/A   Clear
10:58 AM 77.7 °F 41.9 °F 28% 29.86 in 10.0 mi Variable 3.5 mph - N/A   Clear
11:58 AM 80.6 °F 43.0 °F 26% 29.85 in 10.0 mi North 3.5 mph - N/A   Clear
12:58 PM 83.8 °F 42.4 °F 23% 29.83 in 10.0 mi Variable 2.3 mph - N/A   Clear
1:58 PM 86.7 °F 44.1 °F 22% 29.80 in 10.0 mi Variable 2.3 mph - N/A   Clear
2:58 PM 88.9 °F 42.3 °F 20% 29.78 in 10.0 mi North 5.8 mph - N/A   Clear
3:58 PM 90.5 °F 42.1 °F 18% 29.76 in 10.0 mi Variable 1.2 mph - N/A   Clear
4:58 PM 91.4 °F 41.4 °F 17% 29.74 in 10.0 mi Variable 2.3 mph - N/A   Clear
5:58 PM 89.2 °F 43.9 °F 21% 29.73 in 10.0 mi WSW 12.7 mph - N/A   Clear
6:56 PM 82.4 °F 42.8 °F 25% 29.70 in 10.0 mi SW 12.7 mph - N/A   Clear
7:56 PM 73.4 °F 44.6 °F 36% 29.70 in 10.0 mi SW 12.7 mph - N/A   Clear
8:56 PM 71.6 °F 32.0 °F 23% 29.72 in 10.0 mi WSW 12.7 mph - N/A   Clear
9:56 PM 68.0 °F 39.2 °F 35% 29.72 in 10.0 mi SSW 13.8 mph - N/A   Clear
10:58 PM 65.8 °F 42.6 °F 43% 29.75 in 10.0 mi SW 16.1 mph - N/A   Clear
11:58 PM 65.1 °F 44.6 °F 47% 29.74 in 10.0 mi SW 19.6 mph - N/A   Clear